Weather in Mogutovo

Russia / Orenburg Oblast     53°09′11″N   52°09′10″E
temp.,
°C
wind,
m/s
gust,
m/s
humid.,
%
clouds,
%
prec.,
mm/h
press.,
hPa
HPBL,
m
3 march, wed
wed323:00−2sw61296100 2.8 1004657
02:00−2sw4897100 0.8 1002351
05:00−3sw2498100 1.4 1002105
08:00−4wnw2298100 0.4 100134
11:00−3w2497100 0.5 1002161
14:00−2w459696 0.1 1003397
17:00−2wnw589198 0.2 1003672
20:00−5wnw51094100 0.2 1004428
4 march, thu
thu423:00−6w5119599 0.3 1006472
02:00−8wnw41095100 0.3 1006368
05:00−9w5996100 0.3 1008277
08:00−13sw489898 0.1 1008145
11:00−9sw6129498 0.1 1008362
14:00−6sw7129399 0.2 1005522
17:00−4sw91593100 0.4 1003845
20:00−1sw91695100 2.2 10011015
5 march, fri
fri523:000wsw91589100 2.6 10021027
02:000wsw71397100 0.4 1003825
05:00−1wsw61197100 1.4 1003658
08:00−2sw61296100 1.1 1003541
11:00−2sw71296100 3.3 1002734
14:000sw713100100 1.5 1001704
17:00+1wsw71599100 4.8 1001736
20:00−2nw61094100 1.3 1004501
6 march, sat
sat623:00−9nw479593 1.3 1009126
02:00−14nnw23830 0.0 101224
05:00−17nne118027 0.0 101520
08:00−16ese127972 0.0 101520
11:00−11sse358786 0.0 1015181
14:00−7se2387100 0.0 1013272
17:00−6se2291100 0.0 1010288
20:00−7w1196100 0.1 100822
7 march, sun
sun723:00−11wnw359699 0.2 100991
02:00−13wnw4119897 0.1 1009229
05:00−16wnw489790 0.1 1011148
08:00−19wnw3710091 0.0 1012140
11:00−17wnw369690 0.1 1014215
14:00−14w369276 0.0 1015325
17:00−12sw369048 0.0 1014406
20:00−15s4109433 0.0 1013201